星链-5352 (STARLINK-5352 )

导读

STARLINK-5352是美国SpaceX公司星链(Starlink)星座中的一颗互联网通信卫星,于2023年5月4日发射。星链项目旨在通过低地球轨道部署大量卫星,为全球尤其是偏远欠发达地区提供高速、低延迟的宽带互联网服务。该卫星重约297公斤,运行在约550公里高度的近地轨道,属于星链网络规模扩张的一部分,助力实现全球卫星互联网覆盖目标。

基本信息
目录编号:
56426
目录名称:
STARLINK-5352
国际标识:
2023-061BE
轨道中心:
EARTH
卫星名称:
星链-5352
卫星全名:
星链-5352 (STARLINK-5352 )
卫星状态:
在轨 (已飞行1227 天)
发射日期:
2023-05-04 UTC
国别 :
美国 (US)
星等 :
--
该卫星已列入 空间交会检测服务 Space Conjunction Data Service (SCDS) ,当前飞行风险评估等级: 高风险
轨道信息
数据来源 国际轨道数据 AOE轨道数据
星历时间 2026-09-12T13:21:23+0800
7小时前
查看轨道信息
2026-09-09T23:00:00+0800
2天前
查看轨道信息
半长轴 6861.227km 6861.18km
偏心率 0.0001123 0.0000916
轨道倾角 43.001° 42.997°
近地点辐角 249.338° 148.720°
升交点赤经 206.434° 221.113°
平近点角 110.735° 306.605°
近地点 482.319km 482.414km
远地点 483.861km 483.672km
周期 94.268分钟 94.267分钟
每日圈数 15.275664 15.275822
详细信息
固有亮度:
5
最大亮度:
2.5
卫星平台:
Starlink v1.5
覆盖范围:
全球
运营商:
太空探索技术公司
运营商所在国:
美国
制造商(研发单位):
太空探索技术公司
制造商所在国:
美国
使用方式:
暂无
卫星简介
星链(Starlink)计划是由太空探索技术公司(SpaceX)提出的一个巨型低轨卫星互联网星座项目,计划在2019年至2024年间在太空搭建由约1.2万颗卫星组成的“星链”网络,其中1584颗将部署在地球上空550千米处的近地轨道,并从2020年开始工作。该卫星仍在工作。
2D轨道图
3D轨道图
轨道高度分析图
轨道倾角分析图
轨道综合分析图
查看轨道综合分析图
交会数据列表
事件ID 空间交会对象 最接近时刻(TCA) 交会距离 交会风险概率(CRP) 交会风险指数(CRI) 操作
CDM_260914-170705-642606-798621
2026-09-14T
17:07:45+0000
0.459 km
远距离
1.910228E-4 高风险 0.81
CDM_260913-222905-642606-762921
2026-09-13T
22:29:03+0000
0.886 km
远距离
1.535779E-5 中风险 0.59
CDM_260913-100405-642605-718223
OBJECT S (57182)
2026-09-13T
10:04:32+0000
1.415 km
极远距离
7.441035E-6 低风险 0.52
CDM_260914-022405-642606-762921
2026-09-14T
02:24:26+0000
1.535 km
极远距离
2.455091E-6 低风险 0.43
CDM_260914-035805-642606-762921
2026-09-14T
03:58:35+0000
1.742 km
极远距离
1.709417E-6 低风险 0.4
CDM_260913-205405-642606-762922
2026-09-13T
20:54:54+0000
1.891 km
极远距离
1.382539E-6 低风险 0.38
CDM_260913-095705-642606-387821
2026-09-13T
09:57:54+0000
2.868 km
极远距离
1.040949E-6 低风险 0.35
与全量物体交会距离演化趋势
与全量物体交会风险概率演化趋势